Location: Bayshore Village Mobile Home Park
(26.6945°N, 81.8642°W)
Time: 00:17:18
(UTC+00:00)

SL-08 R/B - Pass Details

Date: 17 June 2021
Orbit: 674 x 739 km, 98.5° (Epoch: 05 August)

Event Time Altitude Azimuth Distance (km) Brightness Sun altitude
Exits shadow 09:42:07 - 197° (SSW) 2,345 5.6 -10.9°
Reaches altitude 10° 09:42:48 10° 201° (SSW) 2,102 5.3 -10.7°
Maximum altitude 09:46:48 30° 262° (W) 1,223 4.1 -10.0°
Drops below altitude 10° 09:50:52 10° 323° (NW) 2,134 5.8 -9.2°
Sets 09:53:22 0° 334° (NNW) 3,062 6.7 -8.8°
